| time (UTC) | temp F | wind direction | speed MPH | gust MPH | rain 1hr in | rain 24hr in | rain mn in | humidity % | barometer mb |
| 20260505080008 | 68 | 192 | 2.0 | 7.0 | 0.00 | 0.00 | 0.00 | 49 | 1020.3 |
| 20260505074508 | 68 | 175 | 3.0 | 7.0 | 0.00 | 0.00 | 0.00 | 49 | 1020.1 |
| 20260505073009 | 69 | 187 | 2.0 | 7.0 | 0.00 | 0.00 | 0.00 | 48 | 1020.1 |
| 20260505071508 | 69 | 185 | 2.0 | 7.0 | 0.00 | 0.00 | 0.00 | 48 | 1020.1 |
| 20260505070010 | 69 | 183 | 2.0 | 8.0 | 0.00 | 0.00 | 0.00 | 48 | 1020.0 |
| 20260505064508 | 70 | 196 | 2.0 | 6.0 | 0.00 | 0.00 | 0.00 | 49 | 1019.9 |
| 20260505063008 | 70 | 189 | 3.0 | 10.0 | 0.00 | 0.00 | 0.00 | 49 | 1019.8 |
| 20260505061509 | 70 | 181 | 3.0 | 12.0 | 0.00 | 0.00 | 0.00 | 47 | 1019.7 |
| 20260505060010 | 71 | 211 | 2.0 | 6.0 | 0.00 | 0.00 | 0.00 | 45 | 1019.6 |
| 20260505054509 | 71 | 182 | 2.0 | 8.0 | 0.00 | 0.00 | 0.00 | 44 | 1019.4 |
| 20260505053009 | 71 | 191 | 2.0 | 10.0 | 0.00 | 0.00 | 0.00 | 43 | 1019.5 |
| 20260505041510 | 72 | 190 | 1.0 | 6.0 | 0.00 | 0.00 | 0.00 | 30 | 1019.2 |
| 20260505040009 | 72 | 191 | 2.0 | 7.0 | 0.00 | 0.00 | 0.00 | 29 | 1019.3 |
| 20260505034508 | 72 | 174 | 1.0 | 5.0 | 0.00 | 0.00 | 0.00 | 31 | 1019.4 |
| 20260505031508 | 71 | 190 | 1.0 | 5.0 | 0.00 | 0.00 | 0.00 | 30 | 1019.6 |
| 20260505030009 | 71 | 194 | 0.0 | 3.0 | 0.00 | 0.00 | 0.00 | 29 | 1019.6 |
| 20260505024510 | 70 | 190 | 0.0 | 3.0 | 0.00 | 0.00 | 0.00 | 31 | 1019.8 |
| 20260505023008 | 70 | 193 | 1.0 | 3.0 | 0.00 | 0.00 | 0.00 | 30 | 1019.7 |
| 20260505021509 | 71 | 158 | 0.0 | 2.0 | 0.00 | 0.00 | 0.00 | 31 | 1020.1 |
| 20260505020009 | 70 | 190 | 0.0 | 1.0 | 0.00 | 0.00 | 0.00 | 30 | 1020.3 |
| 20260505014508 | 70 | 45 | 0.0 | 2.0 | 0.00 | 0.00 | 0.00 | 33 | 1020.3 |
| 20260505013009 | 69 | 190 | 0.0 | 2.0 | 0.00 | 0.00 | 0.00 | 34 | 1020.5 |
| 20260505011508 | 68 | 190 | 0.0 | 1.0 | 0.00 | 0.00 | 0.00 | 34 | 1020.4 |
| 20260505010008 | 68 | 205 | 0.0 | 2.0 | 0.00 | 0.00 | 0.00 | 35 | 1020.4 |
| 20260505004508 | 67 | 190 | 0.0 | 1.0 | 0.00 | 0.00 | 0.00 | 37 | 1020.3 |
| 20260505003008 | 66 | 190 | 0.0 | 2.0 | 0.00 | 0.00 | 0.00 | 39 | 1020.2 |
| 20260505001508 | 64 | 192 | 0.0 | 3.0 | 0.00 | 0.00 | 0.00 | 40 | 1020.1 |
| 20260505000008 | 65 | 131 | 0.0 | 2.0 | 0.00 | 0.00 | 0.00 | 42 | 1020.1 |
| 20260504234508 | 64 | 190 | 0.0 | 1.0 | 0.00 | 0.00 | 0.00 | 42 | 1020.1 |
| 20260504233010 | 62 | 190 | 0.0 | 2.0 | 0.00 | 0.00 | 0.00 | 43 | 1020.1 |
| 20260504231508 | 62 | 191 | 0.0 | 1.0 | 0.00 | 0.00 | 0.00 | 47 | 1020.3 |
| 20260504230008 | 62 | 190 | 0.0 | 1.0 | 0.00 | 0.00 | 0.00 | 48 | 1020.2 |
| 20260504223009 | 61 | 190 | 0.0 | 0.0 | 0.00 | 0.00 | 0.00 | 50 | 1020.2 |
| 20260504221507 | 59 | 190 | 0.0 | 1.0 | 0.00 | 0.00 | 0.00 | 54 | 1019.9 |
| 20260504220007 | 58 | 190 | 0.0 | 1.0 | 0.00 | 0.00 | 0.00 | 57 | 1019.7 |
| 20260504214508 | 56 | 191 | 0.0 | 1.0 | 0.00 | 0.00 | 0.00 | 58 | 1019.7 |
| 20260504213008 | 55 | 190 | 0.0 | 1.0 | 0.00 | 0.00 | 0.00 | 57 | 1019.5 |
| 20260504211508 | 56 | 190 | 0.0 | 0.0 | 0.00 | 0.00 | 0.00 | 58 | 1019.2 |
| 20260504210008 | 55 | 190 | 0.0 | 0.0 | 0.00 | 0.00 | 0.00 | 62 | 1018.9 |
| 20260504204508 | 54 | 190 | 0.0 | 1.0 | 0.00 | 0.00 | 0.00 | 63 | 1018.5 |
| 20260504203008 | 54 | 190 | 0.0 | 3.0 | 0.00 | 0.00 | 0.00 | 62 | 1018.2 |
| 20260504200008 | 54 | 190 | 0.0 | 1.0 | 0.00 | 0.00 | 0.00 | 63 | 1017.5 |
| 20260504194508 | 54 | 190 | 0.0 | 1.0 | 0.00 | 0.00 | 0.00 | 63 | 1017.3 |
| 20260504193008 | 55 | 190 | 0.0 | 1.0 | 0.00 | 0.00 | 0.00 | 63 | 1017.3 |
| 20260504191508 | 55 | 172 | 0.0 | 1.0 | 0.00 | 0.00 | 0.00 | 63 | 1017.0 |
| 20260504184507 | 55 | 190 | 0.0 | 2.0 | 0.00 | 0.00 | 0.00 | 63 | 1017.0 |
| 20260504183008 | 55 | 190 | 0.0 | 1.0 | 0.00 | 0.00 | 0.00 | 63 | 1016.7 |
| 20260504174509 | 56 | 196 | 0.0 | 1.0 | 0.00 | 0.00 | 0.00 | 62 | 1016.2 |
| 20260504173008 | 56 | 190 | 0.0 | 1.0 | 0.00 | 0.00 | 0.00 | 62 | 1015.9 |
| 20260504081507 | 63 | 163 | 0.0 | 2.0 | 0.00 | 0.00 | 0.00 | 71 | 1008.1 |